TimeMST,TemperatureF,Dew PointF,Humidity,Sea Level PressureIn,VisibilityMPH,Wind Direction,Wind SpeedMPH,Gust SpeedMPH,PrecipitationIn,Events,Conditions,WindDirDegrees,DateUTC
12:58 AM,39.9,32.9,76,30.15,10.0,South,6.9,-,N/A,,Clear,170,2013-12-14 07:58:00
1:58 AM,39.0,32.2,76,30.16,10.0,ESE,4.6,-,N/A,,Clear,120,2013-12-14 08:58:00
2:58 AM,38.8,31.3,74,30.16,10.0,SE,5.8,-,N/A,,Clear,140,2013-12-14 09:58:00
3:58 AM,40.1,30.4,68,30.15,10.0,SE,4.6,-,N/A,,Clear,140,2013-12-14 10:58:00
4:58 AM,37.4,30.9,77,30.17,10.0,Calm,Calm,-,N/A,,Clear,0,2013-12-14 11:58:00
5:58 AM,37.8,31.1,77,30.18,10.0,ENE,3.5,-,N/A,,Clear,70,2013-12-14 12:58:00
6:58 AM,35.8,30.6,81,30.21,10.0,SSE,5.8,-,N/A,,Clear,150,2013-12-14 13:58:00
7:58 AM,36.9,30.4,77,30.23,10.0,SE,4.6,-,N/A,,Clear,140,2013-12-14 14:58:00
8:58 AM,43.3,30.4,60,30.26,10.0,SE,4.6,-,N/A,,Clear,130,2013-12-14 15:58:00
9:58 AM,49.5,30.9,49,30.26,10.0,ESE,2.3,-,N/A,,Clear,110,2013-12-14 16:58:00
10:58 AM,52.2,31.6,46,30.26,10.0,North,3.5,-,N/A,,Clear,360,2013-12-14 17:58:00
11:58 AM,55.2,28.9,37,30.25,10.0,North,3.5,-,N/A,,Clear,10,2013-12-14 18:58:00
12:58 PM,57.7,26.8,31,30.22,10.0,Variable,2.3,-,N/A,,Clear,0,2013-12-14 19:58:00
1:58 PM,60.8,25.3,26,30.18,10.0,NNW,3.5,-,N/A,,Clear,330,2013-12-14 20:58:00
2:58 PM,62.1,23.2,23,30.16,10.0,North,4.6,-,N/A,,Clear,360,2013-12-14 21:58:00
3:58 PM,61.9,24.1,24,30.17,10.0,NW,10.4,-,N/A,,Clear,310,2013-12-14 22:58:00
4:58 PM,59.5,23.9,25,30.19,10.0,NW,10.4,-,N/A,,Clear,310,2013-12-14 23:58:00
5:58 PM,54.0,27.3,36,30.20,10.0,North,4.6,-,N/A,,Clear,360,2013-12-15 00:58:00
6:58 PM,53.8,27.0,36,30.23,10.0,North,5.8,-,N/A,,Clear,350,2013-12-15 01:58:00
7:58 PM,47.1,29.1,50,30.25,10.0,South,8.1,-,N/A,,Clear,170,2013-12-15 02:58:00
8:58 PM,44.1,29.8,57,30.26,10.0,SW,6.9,-,N/A,,Clear,230,2013-12-15 03:58:00
9:58 PM,42.3,30.0,62,30.25,10.0,SSW,4.6,-,N/A,,Clear,210,2013-12-15 04:58:00
10:58 PM,41.5,29.3,62,30.26,10.0,Variable,3.5,-,N/A,,Clear,0,2013-12-15 05:58:00
11:58 PM,40.6,29.1,64,30.25,10.0,SW,3.5,-,N/A,,Clear,230,2013-12-15 06:58:00